Regional Weather Roundup
Issued by NWS Portland, ME

Current Version | Previous Version | Text Only | Print | Product List | Glossary Off
Versions: 1 2 3 4 5 6 7 8 9 10 11 12 13 14 15 16 17 18 19 20 21 22 23 24 25 26 27 28 29 30 31 32 33 34 35 36 37 38 39 40 41 42 43 44 45 46 47 48 49 50
190 ASUS41 KGYX 231605 RWRGYX WEATHER ROUNDUP FOR MAINE AND NEW HAMPSHIRE NATIONAL WEATHER SERVICE GRAY ME 1100 AM EST TUE JAN 23 2018 MEZ002-005-006-010-012-015-018-020-021-024-026-027-029-231700- MAINE CITY SKY/WX TMP DP RH WIND PRES REMARKS PORTLAND FRZ RAIN 26 26 100 VRB5 29.85F SANFORD LGT SNOW 28 27 96 N8 29.80F FOG BAR HARBOR RAIN 43 42 97 E8 29.86F FOG WISCASSET FRZ RAIN 28 28 100 VRB3 29.86F VSB 1 ROCKLAND RAIN 40 40 100 E5 29.83F VSB 1/4 FRYEBURG FRZ RAIN 28 28 100 NE3 29.83F FOG LEWISTONAUBURN MIX PCPN 24 23 96 N10 29.85F FOG WCI 14 AUGUSTA FRZ RAIN 21 20 96 N12 29.86F FOG WCI 9 WATERVILLE LGT SNOW 23 22 96 N6 29.81F FOG BANGOR FRZ RAIN 31 29 92 NW5 29.86F FOG GREENVILLE N/A 24 24 100 SE9 29.77F MILLINOCKET FOG 18 15 88 N3 29.92F VSB 1 HOULTON MIX PCPN 19 15 84 VRB7 29.94F VSB 3/4 PRESQUE ISLE LGT SNOW 15 13 91 N6 29.97F VSB 1 FRENCHVILLE LGT SNOW 9 6 88 E16 29.92F VSB 3/4 WCI -8 CARIBOU MIX PCPN 17 13 84 E7 29.96F VSB 3/4 $$ NHZ002-005-008-009-011-012-014-231700- NEW HAMPSHIRE CITY SKY/WX TMP DP RH WIND PRES REMARKS PORTSMOUTH FRZ RAIN 29 28 97 NW6 29.78F FOG ROCHESTER FRZ RAIN 29 29 100 N6 29.79F FOG NASHUA LGT SNOW 30 30 100 CALM 29.78F FOG MANCHESTER FRZ RAIN 30 29 96 N6 29.76F FOG CONCORD MIX PCPN 30 28 92 N3 29.77F FOG LACONIA LGT SNOW 31 29 92 NE13 29.76F FOG PLYMOUTH LGT SNOW 31 30 95 CALM 29.75F BERLIN FRZ RAIN 32 31 96 NW5 29.73F FOG WHITEFIELD RAIN 36 36 100 W5 29.69F FOG JAFFREY LGT RAIN 33 33 100 VRB3 29.72F FOG KEENE LGT SNOW 33 31 92 CALM 29.74R FOG LEBANON RAIN 33 32 96 CALM 29.72F FOG MT WASHINGTON FRZ RAIN 32 32 100 S45G53 N/A VSB 0 WCI 15 $$ VTZ005-007-008-231700- VERMONT CITY SKY/WX TMP DP RH WIND PRES REMARKS ST JOHNSBURY N/A 33 33 100 MISG 29.69F MONTPELIER RAIN 34 34 100 SW6 29.70F BURLINGTON RAIN 39 37 92 S7 29.62F FOG $$ MAZ007-012-024-CTZ003-RIZ002-NYZ038-NYZ072-231700- SOUTHERN NEW ENGLAND AND NY CITY SKY/WX TMP DP RH WIND PRES REMARKS BOSTON RAIN 34 34 100 N5 29.77F VSB 1/4 WORCESTER FRZ RAIN 31 30 96 NE3 29.73F VSB 1/2 NANTUCKET CLOUDY 48 48 100 S24 29.84F FOG PROVIDENCE HVY RAIN 52 52 100 S17G25 29.74F FOG HARTFORD LGT RAIN 36 36 100 N5 29.71F FOG ALBANY RAIN 43 41 93 S8 29.63F FOG NEW YORK CITY LGT RAIN 54 52 93 S15G21 29.63F $$ ANZ081-ANZ082-ANZ150-NHZ014-MEZ023>029-231700- COASTAL MARINE OBSERVATIONS STATION/POSITION TIME TEMP WIND PRES WAVE AIR SEA DIR/SP/G HT/PER (UTC) (F) (DEG/KT/KT) (MB) (FT/S) MOUNT DESERT ROC 1600 48 140/ 29/ 31 1011.5F MATINICUS ROCK 1500 45 150/ 17/ 19 1011.4F ISLE OF SHOALS 1500 30 10/ 2/ 2 1010.9F JEFFREYS LEDGE 1536 43 N/A 6/ 7 GEORGES BANK BUO 1450 49 54 1025.3 5/ 6 $$ .............KEY.............. WCI - WIND CHILL TC - TEMPERATURE IN CELSIUS VSB - VISIBILITY IN MILES HX - HEAT INDEX FAIR- INDICATES FEW OR NO CLOUDS BELOW 12,000 FT, WITH NO SIGNIFICANT WEATHER AND/OR OBSTRUCTIONS TO VISIBILITY.

USA.gov is the U.S. government's official web portal to all federal, state and local government web resources and services.